N123AA MDJB-MDMC

Flight info

Callsign N123AA
Flight time 0h 44m
Altitude 6000
Route SGO
Aircraft DA62/L-SDFGRY/C

Departure

Time 2026-04-17 19:15
Airport La Isabela International Airport (MDJB)

Arrival

Time 2026-04-17 20:00
Airport Monte Cristi Airport (MDMC)
Time Latitude Longitude Altitude Speed Heading
2026-04-17 18:57 18.57901 -69.98124 83 ft 0 kts
2026-04-17 19:00 18.57902 -69.98124 83 ft 0 kts
2026-04-17 19:01 18.57913 -69.98123 83 ft 4 kts
2026-04-17 19:02 18.57950 -69.98121 83 ft 6 kts
2026-04-17 19:02 18.57982 -69.98123 83 ft 3 kts 315°
2026-04-17 19:02 18.57985 -69.98132 83 ft 1 kts 275°
2026-04-17 19:02 18.57986 -69.98145 83 ft 3 kts 275°
2026-04-17 19:03 18.57986 -69.98152 83 ft 4 kts 275°
2026-04-17 19:03 18.57989 -69.98184 83 ft 6 kts 271°
2026-04-17 19:03 18.57952 -69.98212 83 ft 6 kts 187°
2026-04-17 19:03 18.57918 -69.98217 83 ft 4 kts 188°
2026-04-17 19:04 18.57899 -69.98220 83 ft 3 kts 188°
2026-04-17 19:04 18.57869 -69.98224 83 ft 7 kts 188°
2026-04-17 19:04 18.57786 -69.98235 83 ft 9 kts 185°
2026-04-17 19:04 18.57713 -69.98243 83 ft 10 kts 185°
2026-04-17 19:05 18.57675 -69.98272 83 ft 7 kts 281°
2026-04-17 19:05 18.57652 -69.98300 83 ft 5 kts 187°
2026-04-17 19:05 18.57610 -69.98306 83 ft 8 kts 187°
2026-04-17 19:05 18.57541 -69.98315 83 ft 11 kts 187°
2026-04-17 19:06 18.57484 -69.98354 83 ft 11 kts 229°
2026-04-17 19:06 18.57414 -69.98415 83 ft 15 kts 217°
2026-04-17 19:06 18.57348 -69.98467 83 ft 3 kts 217°
2026-04-17 19:06 18.57347 -69.98468 83 ft 0 kts 217°
2026-04-17 19:09 18.57333 -69.98479 83 ft 7 kts 217°
2026-04-17 19:09 18.57277 -69.98525 83 ft 13 kts 217°
2026-04-17 19:10 18.57189 -69.98568 83 ft 16 kts 187°
2026-04-17 19:10 18.57063 -69.98584 83 ft 19 kts 184°
2026-04-17 19:10 18.56920 -69.98600 83 ft 22 kts 187°
2026-04-17 19:10 18.56760 -69.98620 83 ft 24 kts 184°
2026-04-17 19:11 18.56593 -69.98637 83 ft 20 kts 178°
2026-04-17 19:11 18.56498 -69.98618 83 ft 11 kts 210°
2026-04-17 19:11 18.56495 -69.98654 83 ft 4 kts
2026-04-17 19:11 18.56502 -69.98652 83 ft 0 kts
2026-04-17 19:14 18.56504 -69.98652 83 ft 6 kts
2026-04-17 19:14 18.56726 -69.98627 83 ft 55 kts
2026-04-17 19:15 18.57246 -69.98559 91 ft 94 kts
2026-04-17 19:15 18.57902 -69.98475 425 ft 87 kts
2026-04-17 19:15 18.58495 -69.98379 739 ft 89 kts
2026-04-17 19:15 18.59133 -69.98294 1011 ft 93 kts
2026-04-17 19:16 18.59762 -69.98222 1351 ft 91 kts
2026-04-17 19:16 18.60417 -69.98140 1621 ft 96 kts 11°
2026-04-17 19:16 18.61087 -69.98101 1852 ft 109 kts 343°
2026-04-17 19:16 18.61595 -69.98740 2047 ft 122 kts 289°
2026-04-17 19:17 18.61849 -69.99604 2325 ft 125 kts 286°
2026-04-17 19:17 18.62157 -70.00478 2588 ft 129 kts 295°
2026-04-17 19:17 18.62590 -70.01324 2851 ft 133 kts 301°
2026-04-17 19:17 18.63104 -70.02148 3112 ft 136 kts 305°
2026-04-17 19:18 18.63664 -70.02964 3370 ft 139 kts 307°
2026-04-17 19:18 18.64253 -70.03780 3627 ft 141 kts 308°
2026-04-17 19:18 18.64864 -70.04606 3849 ft 146 kts 308°
2026-04-17 19:18 18.65509 -70.05469 3995 ft 154 kts 308°
2026-04-17 19:19 18.66193 -70.06381 4133 ft 161 kts 308°
2026-04-17 19:19 18.66890 -70.07309 4271 ft 165 kts 308°
2026-04-17 19:19 18.67606 -70.08264 4415 ft 166 kts 308°
2026-04-17 19:19 18.68324 -70.09219 4560 ft 167 kts 308°
2026-04-17 19:20 18.69045 -70.10180 4705 ft 167 kts 308°
2026-04-17 19:20 18.69766 -70.11115 4925 ft 163 kts 310°
2026-04-17 19:20 18.70481 -70.12028 5162 ft 159 kts 309°
2026-04-17 19:20 18.71171 -70.12927 5403 ft 156 kts 310°
2026-04-17 19:21 18.71852 -70.13810 5642 ft 154 kts 310°
2026-04-17 19:21 18.72515 -70.14670 5913 ft 149 kts 310°
2026-04-17 19:21 18.73141 -70.15482 6301 ft 139 kts 310°
2026-04-17 19:21 18.73783 -70.16303 6416 ft 150 kts 310°
2026-04-17 19:22 18.74437 -70.17152 6672 ft 148 kts 310°
2026-04-17 19:22 18.75086 -70.17997 6920 ft 148 kts 310°
2026-04-17 19:22 18.75732 -70.18839 7167 ft 148 kts 310°
2026-04-17 19:22 18.76380 -70.19683 7417 ft 147 kts 310°
2026-04-17 19:23 18.77025 -70.20525 7666 ft 147 kts 309°
2026-04-17 19:23 18.78306 -70.22197 8161 ft 147 kts 309°
2026-04-17 19:23 18.78950 -70.23038 8410 ft 147 kts 309°
2026-04-17 19:24 18.79594 -70.23879 8660 ft 147 kts 309°
2026-04-17 19:24 18.80244 -70.24728 8863 ft 151 kts 309°
2026-04-17 19:24 18.80912 -70.25606 8977 ft 156 kts 309°
2026-04-17 19:24 18.81599 -70.26514 9001 ft 160 kts 309°
2026-04-17 19:25 18.82285 -70.27422 8989 ft 155 kts 309°
2026-04-17 19:25 18.82957 -70.28303 8995 ft 157 kts 309°
2026-04-17 19:25 18.83657 -70.29222 9009 ft 164 kts 309°
2026-04-17 19:25 18.84378 -70.30175 9006 ft 168 kts 309°
2026-04-17 19:26 18.85113 -70.31152 9003 ft 171 kts 309°
2026-04-17 19:26 18.85853 -70.32134 9003 ft 175 kts 309°
2026-04-17 19:26 18.86619 -70.33151 9003 ft 178 kts 309°
2026-04-17 19:26 18.87392 -70.34179 9000 ft 180 kts 309°
2026-04-17 19:27 18.88174 -70.35216 8998 ft 180 kts 309°
2026-04-17 19:27 18.88957 -70.36250 8998 ft 181 kts 309°
2026-04-17 19:27 18.89744 -70.37289 8998 ft 181 kts 309°
2026-04-17 19:27 18.90534 -70.38329 8997 ft 181 kts 309°
2026-04-17 19:28 18.91313 -70.39354 8997 ft 181 kts 309°
2026-04-17 19:28 18.92103 -70.40391 8997 ft 181 kts 309°
2026-04-17 19:28 18.92894 -70.41430 8997 ft 181 kts 309°
2026-04-17 19:28 18.93686 -70.42470 8997 ft 181 kts 309°
2026-04-17 19:29 18.94475 -70.43506 8997 ft 181 kts 309°
2026-04-17 19:29 18.94999 -70.44194 8997 ft 181 kts 309°
2026-04-17 19:29 18.95794 -70.45238 8997 ft 181 kts 309°
2026-04-17 19:29 18.96842 -70.46613 8997 ft 181 kts 309°
2026-04-17 19:30 18.97634 -70.47653 8997 ft 181 kts 309°
2026-04-17 19:30 18.98169 -70.48354 8997 ft 181 kts 309°
2026-04-17 19:30 18.98960 -70.49393 8996 ft 181 kts 309°
2026-04-17 19:30 18.99750 -70.50430 8997 ft 181 kts 309°
2026-04-17 19:31 19.00542 -70.51471 8997 ft 181 kts 309°
2026-04-17 19:31 19.01324 -70.52498 8997 ft 181 kts 309°
2026-04-17 19:31 19.02118 -70.53541 8997 ft 181 kts 309°
2026-04-17 19:31 19.02908 -70.54579 8997 ft 181 kts 309°
2026-04-17 19:32 19.03684 -70.55599 8997 ft 182 kts 309°
2026-04-17 19:32 19.04490 -70.56659 8997 ft 182 kts 309°
2026-04-17 19:32 19.05282 -70.57700 8997 ft 182 kts 309°
2026-04-17 19:32 19.06074 -70.58742 8997 ft 182 kts 309°
2026-04-17 19:33 19.06865 -70.59783 8997 ft 182 kts 309°
2026-04-17 19:33 19.07660 -70.60827 8997 ft 182 kts 309°
2026-04-17 19:33 19.08451 -70.61868 8997 ft 182 kts 309°
2026-04-17 19:33 19.09240 -70.62906 8997 ft 182 kts 309°
2026-04-17 19:34 19.10023 -70.63936 8997 ft 182 kts 309°
2026-04-17 19:34 19.10824 -70.64991 8997 ft 182 kts 309°
2026-04-17 19:34 19.11605 -70.66018 8997 ft 182 kts 309°
2026-04-17 19:34 19.12394 -70.67058 8997 ft 182 kts 309°
2026-04-17 19:35 19.13187 -70.68101 8997 ft 182 kts 309°
2026-04-17 19:35 19.13977 -70.69142 8997 ft 182 kts 309°
2026-04-17 19:35 19.14769 -70.70186 8997 ft 182 kts 309°
2026-04-17 19:35 19.15560 -70.71227 8997 ft 182 kts 309°
2026-04-17 19:36 19.16352 -70.72271 8997 ft 182 kts 309°
2026-04-17 19:36 19.17144 -70.73314 8997 ft 182 kts 309°
2026-04-17 19:36 19.17934 -70.74356 8997 ft 182 kts 309°
2026-04-17 19:36 19.18713 -70.75383 8997 ft 182 kts 309°
2026-04-17 19:37 19.19504 -70.76426 8997 ft 182 kts 309°
2026-04-17 19:37 19.20296 -70.77470 8997 ft 182 kts 309°
2026-04-17 19:37 19.21085 -70.78511 8997 ft 182 kts 309°
2026-04-17 19:37 19.21875 -70.79554 8997 ft 182 kts 309°
2026-04-17 19:38 19.22667 -70.80597 8997 ft 182 kts 309°
2026-04-17 19:38 19.23455 -70.81638 8997 ft 182 kts 309°
2026-04-17 19:38 19.24249 -70.82686 8997 ft 182 kts 309°
2026-04-17 19:38 19.25038 -70.83728 8997 ft 182 kts 309°
2026-04-17 19:39 19.25829 -70.84772 8997 ft 182 kts 309°
2026-04-17 19:39 19.26620 -70.85816 8997 ft 182 kts 309°
2026-04-17 19:39 19.27412 -70.86862 8997 ft 182 kts 309°
2026-04-17 19:39 19.28200 -70.87903 8997 ft 182 kts 309°
2026-04-17 19:40 19.28983 -70.88937 8997 ft 182 kts 309°
2026-04-17 19:40 19.29773 -70.89981 8997 ft 182 kts 309°
2026-04-17 19:40 19.30563 -70.91024 8997 ft 182 kts 309°
2026-04-17 19:40 19.31351 -70.92066 8997 ft 182 kts 309°
2026-04-17 19:41 19.32145 -70.93116 8997 ft 182 kts 309°
2026-04-17 19:41 19.32934 -70.94158 8997 ft 182 kts 309°
2026-04-17 19:41 19.33726 -70.95206 8997 ft 182 kts 309°
2026-04-17 19:41 19.34516 -70.96250 8997 ft 182 kts 309°
2026-04-17 19:42 19.35304 -70.97294 8997 ft 182 kts 309°
2026-04-17 19:42 19.36095 -70.98340 8997 ft 182 kts 309°
2026-04-17 19:42 19.36883 -70.99382 8997 ft 182 kts 309°
2026-04-17 19:42 19.37674 -71.00428 8997 ft 182 kts 309°
2026-04-17 19:43 19.38454 -71.01462 8997 ft 182 kts 309°
2026-04-17 19:43 19.39246 -71.02509 8997 ft 182 kts 309°
2026-04-17 19:43 19.40034 -71.03553 8997 ft 182 kts 309°
2026-04-17 19:43 19.40826 -71.04601 8997 ft 182 kts 309°
2026-04-17 19:44 19.41616 -71.05648 8997 ft 182 kts 309°
2026-04-17 19:44 19.42405 -71.06693 8997 ft 182 kts 309°
2026-04-17 19:44 19.43195 -71.07739 8997 ft 182 kts 309°
2026-04-17 19:44 19.43982 -71.08782 8997 ft 182 kts 309°
2026-04-17 19:45 19.44770 -71.09826 8997 ft 182 kts 309°
2026-04-17 19:45 19.45554 -71.10865 8997 ft 182 kts 309°
2026-04-17 19:45 19.46344 -71.11912 8997 ft 182 kts 309°
2026-04-17 19:45 19.47133 -71.12958 8997 ft 182 kts 309°
2026-04-17 19:46 19.47922 -71.14004 8997 ft 182 kts 309°
2026-04-17 19:46 19.48712 -71.15052 8997 ft 182 kts 309°
2026-04-17 19:46 19.49499 -71.16096 8997 ft 182 kts 309°
2026-04-17 19:46 19.50288 -71.17142 8997 ft 182 kts 309°
2026-04-17 19:47 19.51076 -71.18188 8997 ft 182 kts 309°
2026-04-17 19:47 19.51865 -71.19235 8997 ft 182 kts 309°
2026-04-17 19:47 19.52654 -71.20282 8997 ft 182 kts 309°
2026-04-17 19:47 19.53444 -71.21329 8997 ft 182 kts 309°
2026-04-17 19:48 19.54224 -71.22364 8997 ft 182 kts 309°
2026-04-17 19:48 19.55013 -71.23412 8997 ft 182 kts 309°
2026-04-17 19:48 19.55798 -71.24454 8997 ft 182 kts 309°
2026-04-17 19:48 19.56588 -71.25504 8997 ft 182 kts 309°
2026-04-17 19:49 19.57378 -71.26551 8997 ft 182 kts 309°
2026-04-17 19:49 19.58167 -71.27599 8997 ft 182 kts 309°
2026-04-17 19:49 19.58955 -71.28646 8997 ft 182 kts 309°
2026-04-17 19:49 19.59746 -71.29696 8997 ft 182 kts 309°
2026-04-17 19:50 19.60525 -71.30732 8997 ft 182 kts 309°
2026-04-17 19:50 19.61313 -71.31778 8997 ft 182 kts 309°
2026-04-17 19:50 19.62103 -71.32827 8997 ft 182 kts 309°
2026-04-17 19:50 19.62892 -71.33875 8997 ft 182 kts 309°
2026-04-17 19:51 19.63679 -71.34921 8997 ft 182 kts 309°
2026-04-17 19:51 19.64470 -71.35972 8997 ft 182 kts 309°
2026-04-17 19:51 19.65249 -71.37007 8997 ft 182 kts 309°
2026-04-17 19:51 19.66038 -71.38055 8997 ft 182 kts 309°
2026-04-17 19:52 19.66831 -71.39109 8997 ft 182 kts 309°
2026-04-17 19:52 19.67618 -71.40154 8997 ft 182 kts 309°
2026-04-17 19:52 19.68408 -71.41204 8997 ft 182 kts 309°
2026-04-17 19:52 19.69198 -71.42252 8997 ft 182 kts 309°
2026-04-17 19:53 19.69985 -71.43298 8997 ft 182 kts 309°
2026-04-17 19:53 19.70775 -71.44347 8997 ft 182 kts 309°
2026-04-17 19:53 19.71572 -71.45407 8876 ft 188 kts 309°
2026-04-17 19:53 19.72373 -71.46480 8915 ft 171 kts 308°
2026-04-17 19:54 19.73140 -71.47491 8595 ft 179 kts 309°
2026-04-17 19:54 19.73916 -71.48509 8289 ft 181 kts 309°
2026-04-17 19:54 19.74705 -71.49554 7958 ft 183 kts 309°
2026-04-17 19:54 19.75510 -71.50625 7581 ft 187 kts 309°
2026-04-17 19:55 19.76326 -71.51719 7083 ft 189 kts 309°
2026-04-17 19:55 19.77097 -71.52746 6802 ft 171 kts 310°
2026-04-17 19:55 19.77845 -71.53708 6322 ft 168 kts 311°
2026-04-17 19:55 19.78599 -71.54672 5761 ft 171 kts 310°
2026-04-17 19:56 19.79365 -71.55666 5132 ft 176 kts 310°
2026-04-17 19:56 19.80147 -71.56699 4524 ft 178 kts 310°
2026-04-17 19:56 19.80895 -71.57689 4157 ft 166 kts 310°
2026-04-17 19:56 19.81602 -71.58599 3809 ft 156 kts 311°
2026-04-17 19:57 19.82331 -71.59516 3181 ft 166 kts 311°
2026-04-17 19:57 19.83083 -71.60484 2547 ft 172 kts 310°
2026-04-17 19:57 19.83833 -71.61461 2054 ft 168 kts 311°
2026-04-17 19:57 19.84574 -71.62384 1577 ft 162 kts 313°
2026-04-17 19:58 19.85383 -71.63158 1212 ft 151 kts 317°
2026-04-17 19:58 19.86197 -71.63832 918 ft 151 kts 317°
2026-04-17 19:58 19.86856 -71.64668 811 ft 138 kts 293°
2026-04-17 19:58 19.87093 -71.65509 821 ft 106 kts 267°
2026-04-17 19:59 19.86802 -71.66162 633 ft 94 kts 212°
2026-04-17 19:59 19.86196 -71.66097 466 ft 94 kts 145°
2026-04-17 19:59 19.85835 -71.65555 369 ft 92 kts 104°
2026-04-17 19:59 19.86157 -71.64985 202 ft 100 kts 45°
2026-04-17 20:00 19.86583 -71.64458 120 ft 85 kts 51°
2026-04-17 20:00 19.86862 -71.64093 119 ft 39 kts 49°
2026-04-17 20:00 19.86940 -71.63983 119 ft 6 kts 37°
2026-04-17 20:00 19.86949 -71.63982 119 ft 1 kts 335°
2026-04-17 20:01 19.86952 -71.63985 119 ft 0 kts 311°
2026-04-17 20:01 19.86953 -71.63986 119 ft 0 kts 310°
2026-04-17 20:01 19.86954 -71.63997 119 ft 5 kts 245°
2026-04-17 20:01 19.86906 -71.64039 119 ft 11 kts 226°
2026-04-17 20:02 19.86841 -71.64118 119 ft 17 kts 231°
2026-04-17 20:02 19.86758 -71.64224 119 ft 20 kts 229°
2026-04-17 20:02 19.86661 -71.64347 119 ft 23 kts 232°
2026-04-17 20:02 19.86570 -71.64462 119 ft 18 kts 230°
2026-04-17 20:03 19.86491 -71.64568 119 ft 18 kts 230°
2026-04-17 20:03 19.86418 -71.64664 119 ft 12 kts 230°
2026-04-17 20:03 19.86361 -71.64675 119 ft 6 kts 156°
2026-04-17 20:03 19.86338 -71.64683 119 ft 0 kts 191°